Tracking 25372 objects as of 24-Jan-2022
HD Live streaming from Space Station
objects crossing your sky now

OPS 1264 (DMSP 4A F4)

Track OPS 1264 (DMSP 4A F4) now!
10-day predictions
OPS 1264 (DMSP 4A F4) is classified as:


NORAD ID: 2980
Int'l Code: 1967-096A
Perigee: 632.7 km
Apogee: 771.1 km
Inclination: 99.2 °
Period: 98.7 minutes
Semi major axis: 7072 km
RCS: 0.6338 m2 (medium)
Launch date: October 11, 1967
Source: United States (US)
Launch site: AIR FORCE WESTERN TEST RANGE (AFWTR)
aabbcc
Your satellite tracking list
Your tracking list is empty




NASA's NSSDC Master Catalog

Two Line Element Set (TLE):
1  2980U 67096A   22024.22605338  .00000132  00000-0  38642-4 0  9999
2  2980  99.2058 260.3737 0097863 301.8459  57.3240 14.59509841873707
Source of the keplerian elements: AFSPC